YO7ZRO-13 Weather Reports


time (UTC)temp
C
wind
direction
speed
KPH
gust
KPH
rain 1hr
cm
rain 24hr
cm
rain mn
cm
humidity
%
barometer
mb
20260506062417 20 0.0 0.0 0.00 0.00 0.00 44 1007.8
20260506062318 20 0.0 0.0 0.00 0.00 0.00 44 1007.8
20260506062217 20 0.0 0.0 0.00 0.00 0.00 44 1007.8
20260506062117 20 0.0 0.0 0.00 0.00 0.00 44 1007.9
20260506062017 20 0.0 0.0 0.00 0.00 0.00 44 1007.8
20260506061917 20 0.0 0.0 0.00 0.00 0.00 44 1007.9
20260506061817 20 0.0 0.0 0.00 0.00 0.00 44 1007.8
20260506061717 20 0.0 0.0 0.00 0.00 0.00 44 1007.8
20260506061617 20 0.0 0.0 0.00 0.00 0.00 44 1007.8
20260506061517 20 0.0 0.0 0.00 0.00 0.00 44 1007.8
20260506061417 20 0.0 0.0 0.00 0.00 0.00 44 1007.8
20260506061317 20 0.0 0.0 0.00 0.00 0.00 44 1007.9
20260506061217 20 0.0 0.0 0.00 0.00 0.00 44 1007.8
20260506061118 20 0.0 0.0 0.00 0.00 0.00 44 1007.8
20260506061017 20 0.0 0.0 0.00 0.00 0.00 44 1007.8
20260506060917 20 0.0 0.0 0.00 0.00 0.00 44 1007.9
20260506060817 20 0.0 0.0 0.00 0.00 0.00 44 1007.8
20260506060717 20 0.0 0.0 0.00 0.00 0.00 44 1007.9
20260506060618 20 0.0 0.0 0.00 0.00 0.00 43 1007.9
20260506060517 20 0.0 0.0 0.00 0.00 0.00 43 1007.9
20260506060417 20 0.0 0.0 0.00 0.00 0.00 43 1008.0
20260506060317 20 0.0 0.0 0.00 0.00 0.00 43 1007.9
20260506060217 20 0.0 0.0 0.00 0.00 0.00 43 1007.9
20260506060117 20 0.0 0.0 0.00 0.00 0.00 43 1007.9
20260506051317 20 0.0 0.0 0.00 0.00 0.00 41 1007.8
20260506051217 20 0.0 0.0 0.00 0.00 0.00 41 1007.9
20260506051117 20 0.0 0.0 0.00 0.00 0.00 41 1007.9
20260506051017 20 0.0 0.0 0.00 0.00 0.00 41 1007.9
20260506050917 19 0.0 0.0 0.00 0.00 0.00 42 1007.9
20260506050817 20 0.0 0.0 0.00 0.00 0.00 41 1007.9
20260506050717 20 0.0 0.0 0.00 0.00 0.00 41 1007.8
20260506050618 20 0.0 0.0 0.00 0.00 0.00 41 1008.0
20260506050517 20 0.0 0.0 0.00 0.00 0.00 41 1007.9
20260506050417 20 0.0 0.0 0.00 0.00 0.00 41 1007.9
20260506050317 20 0.0 0.0 0.00 0.00 0.00 41 1007.9
20260506050217 20 0.0 0.0 0.00 0.00 0.00 41 1007.9
20260506050117 20 0.0 0.0 0.00 0.00 0.00 41 1007.8
20260506045117 20 0.0 0.0 0.00 0.00 0.00 42 1007.7
20260506045017 20 0.0 0.0 0.00 0.00 0.00 42 1007.8
20260506044917 20 0.0 0.0 0.00 0.00 0.00 42 1007.8
20260506044817 20 0.0 0.0 0.00 0.00 0.00 42 1007.7
20260506044717 20 0.0 0.0 0.00 0.00 0.00 42 1007.8
20260506044617 20 0.0 0.0 0.00 0.00 0.00 42 1007.7
20260506044517 20 0.0 0.0 0.00 0.00 0.00 43 1007.8
20260506044417 20 0.0 0.0 0.00 0.00 0.00 43 1007.7
20260506044317 20 0.0 0.0 0.00 0.00 0.00 43 1007.7
20260506044217 20 0.0 0.0 0.00 0.00 0.00 43 1007.7
20260506044117 20 0.0 0.0 0.00 0.00 0.00 43 1007.7
20260506044017 20 0.0 0.0 0.00 0.00 0.00 44 1007.6
20260506043917 20 0.0 0.0 0.00 0.00 0.00 44 1007.7
20260506043817 20 0.0 0.0 0.00 0.00 0.00 44 1007.6
20260506043717 20 0.0 0.0 0.00 0.00 0.00 44 1007.6
20260506043617 20 0.0 0.0 0.00 0.00 0.00 44 1007.6
20260506043517 20 0.0 0.0 0.00 0.00 0.00 44 1007.6
20260506043417 20 0.0 0.0 0.00 0.00 0.00 45 1007.5
20260506043317 20 0.0 0.0 0.00 0.00 0.00 45 1007.6
20260506043217 20 0.0 0.0 0.00 0.00 0.00 45 1007.5
20260506043117 20 0.0 0.0 0.00 0.00 0.00 45 1007.6
20260506043017 20 0.0 0.0 0.00 0.00 0.00 45 1007.5
20260506042917 20 0.0 0.0 0.00 0.00 0.00 45 1007.5
20260506042817 20 0.0 0.0 0.00 0.00 0.00 44 1007.5
20260506042718 20 0.0 0.0 0.00 0.00 0.00 45 1007.5
20260506042617 20 0.0 0.0 0.00 0.00 0.00 47 1007.5
20260506042517 20 0.0 0.0 0.00 0.00 0.00 46 1007.5
20260506042417 20 0.0 0.0 0.00 0.00 0.00 46 1007.5
20260506042317 20 0.0 0.0 0.00 0.00 0.00 46 1007.5
20260506042217 20 0.0 0.0 0.00 0.00 0.00 46 1007.5
20260506042117 20 0.0 0.0 0.00 0.00 0.00 46 1007.4
20260506042018 20 0.0 0.0 0.00 0.00 0.00 46 1007.5
20260506041917 20 0.0 0.0 0.00 0.00 0.00 48 1007.4
20260506041817 21 0.0 0.0 0.00 0.00 0.00 51 1007.4
20260506041717 21 0.0 0.0 0.00 0.00 0.00 51 1007.5
20260506041617 21 0.0 0.0 0.00 0.00 0.00 51 1007.5
20260506041518 20 0.0 0.0 0.00 0.00 0.00 50 1007.5
20260506041417 20 0.0 0.0 0.00 0.00 0.00 51 1007.4
20260506041317 20 0.0 0.0 0.00 0.00 0.00 50 1007.4
20260506041217 20 0.0 0.0 0.00 0.00 0.00 50 1007.5
20260506041117 20 0.0 0.0 0.00 0.00 0.00 51 1007.4
20260506041018 20 0.0 0.0 0.00 0.00 0.00 51 1007.4
20260506040917 20 0.0 0.0 0.00 0.00 0.00 51 1007.4
20260506040817 20 0.0 0.0 0.00 0.00 0.00 51 1007.3
20260506040717 20 0.0 0.0 0.00 0.00 0.00 51 1007.4
20260506040617 20 0.0 0.0 0.00 0.00 0.00 51 1007.4
20260506040517 20 0.0 0.0 0.00 0.00 0.00 51 1007.4
20260506040417 20 0.0 0.0 0.00 0.00 0.00 51 1007.3
20260506040317 20 0.0 0.0 0.00 0.00 0.00 51 1007.5
20260506040217 20 0.0 0.0 0.00 0.00 0.00 51 1007.4
20260506040117 20 0.0 0.0 0.00 0.00 0.00 51 1007.3
20260506040017 20 0.0 0.0 0.00 0.00 0.00 51 1007.2
20260506035917 20 0.0 0.0 0.00 0.00 0.00 51 1007.3
20260506035817 20 0.0 0.0 0.00 0.00 0.00 51 1007.2
20260506035717 20 0.0 0.0 0.00 0.00 0.00 52 1007.3
20260506035617 20 0.0 0.0 0.00 0.00 0.00 51 1007.3
20260506035517 20 0.0 0.0 0.00 0.00 0.00 51 1007.2
20260506035418 20 0.0 0.0 0.00 0.00 0.00 52 1007.3
20260506035317 20 0.0 0.0 0.00 0.00 0.00 51 1007.3
20260506035217 21 0.0 0.0 0.00 0.00 0.00 51 1007.3
20260506035117 21 0.0 0.0 0.00 0.00 0.00 52 1007.4
20260506035017 20 0.0 0.0 0.00 0.00 0.00 52 1007.3
20260506034917 21 0.0 0.0 0.00 0.00 0.00 51 1007.3
20260506034817 21 0.0 0.0 0.00 0.00 0.00 52 1007.3
20260506034717 21 0.0 0.0 0.00 0.00 0.00 52 1007.3
20260506034617 21 0.0 0.0 0.00 0.00 0.00 51 1007.2
20260506034517 21 0.0 0.0 0.00 0.00 0.00 52 1007.2
20260506034417 21 0.0 0.0 0.00 0.00 0.00 52 1007.2
20260506034317 21 0.0 0.0 0.00 0.00 0.00 51 1007.2
20260506034217 21 0.0 0.0 0.00 0.00 0.00 52 1007.2
20260506034117 21 0.0 0.0 0.00 0.00 0.00 51 1007.2
20260506034017 21 0.0 0.0 0.00 0.00 0.00 52 1007.2
20260506033917 21 0.0 0.0 0.00 0.00 0.00 52 1007.2
20260506033817 21 0.0 0.0 0.00 0.00 0.00 52 1007.2
20260506033717 21 0.0 0.0 0.00 0.00 0.00 52 1007.2
20260506033617 21 0.0 0.0 0.00 0.00 0.00 52 1007.2
20260506033517 21 0.0 0.0 0.00 0.00 0.00 52 1007.3
20260506033417 21 0.0 0.0 0.00 0.00 0.00 53 1007.2
20260506033317 21 0.0 0.0 0.00 0.00 0.00 52 1007.3
20260506033217 21 0.0 0.0 0.00 0.00 0.00 52 1007.2
20260506033117 21 0.0 0.0 0.00 0.00 0.00 52 1007.2
20260506033017 20 0.0 0.0 0.00 0.00 0.00 51 1007.2
20260506032917 20 0.0 0.0 0.00 0.00 0.00 52 1007.2
20260506032817 20 0.0 0.0 0.00 0.00 0.00 52 1007.2
20260506032717 20 0.0 0.0 0.00 0.00 0.00 52 1007.2
20260506032617 20 0.0 0.0 0.00 0.00 0.00 52 1007.2
20260506032518 20 0.0 0.0 0.00 0.00 0.00 51 1007.2
20260506032417 20 0.0 0.0 0.00 0.00 0.00 52 1007.2
20260506032318 20 0.0 0.0 0.00 0.00 0.00 52 1007.2
20260506032217 20 0.0 0.0 0.00 0.00 0.00 51 1007.2
20260506032117 20 0.0 0.0 0.00 0.00 0.00 52 1007.2
20260506032017 20 0.0 0.0 0.00 0.00 0.00 52 1007.1
20260506031918 20 0.0 0.0 0.00 0.00 0.00 52 1007.2
20260506031817 20 0.0 0.0 0.00 0.00 0.00 52 1007.1
20260506031717 20 0.0 0.0 0.00 0.00 0.00 52 1007.2
20260506031617 20 0.0 0.0 0.00 0.00 0.00 52 1007.1
20260506031517 20 0.0 0.0 0.00 0.00 0.00 52 1007.1
20260506031417 20 0.0 0.0 0.00 0.00 0.00 52 1007.2
20260506031317 20 0.0 0.0 0.00 0.00 0.00 52 1007.1
20260506031217 20 0.0 0.0 0.00 0.00 0.00 52 1007.1
20260506031117 20 0.0 0.0 0.00 0.00 0.00 52 1007.1
20260506031017 20 0.0 0.0 0.00 0.00 0.00 52 1007.1
20260506030917 20 0.0 0.0 0.00 0.00 0.00 51 1007.2
20260506030817 20 0.0 0.0 0.00 0.00 0.00 52 1007.1
20260506030717 20 0.0 0.0 0.00 0.00 0.00 52 1007.1
20260506030617 20 0.0 0.0 0.00 0.00 0.00 52 1007.1
20260506030517 20 0.0 0.0 0.00 0.00 0.00 52 1007.1
20260506030417 20 0.0 0.0 0.00 0.00 0.00 51 1007.1
20260506030317 20 0.0 0.0 0.00 0.00 0.00 51 1007.1
20260506030217 20 0.0 0.0 0.00 0.00 0.00 51 1007.1
20260506030117 20 0.0 0.0 0.00 0.00 0.00 51 1007.1
20260506030017 20 0.0 0.0 0.00 0.00 0.00 51 1007.0
20260506025917 20 0.0 0.0 0.00 0.00 0.00 51 1007.0
20260506025817 20 0.0 0.0 0.00 0.00 0.00 51 1007.1
20260506025717 20 0.0 0.0 0.00 0.00 0.00 52 1007.0
20260506025617 20 0.0 0.0 0.00 0.00 0.00 52 1007.0
20260506025517 20 0.0 0.0 0.00 0.00 0.00 52 1007.1
20260506025417 20 0.0 0.0 0.00 0.00 0.00 51 1007.0
20260506025317 20 0.0 0.0 0.00 0.00 0.00 52 1006.9
20260506025217 20 0.0 0.0 0.00 0.00 0.00 52 1006.9
20260506025117 20 0.0 0.0 0.00 0.00 0.00 51 1006.9
20260506025017 20 0.0 0.0 0.00 0.00 0.00 52 1006.9
20260506024917 20 0.0 0.0 0.00 0.00 0.00 52 1007.0
20260506024817 20 0.0 0.0 0.00 0.00 0.00 52 1006.9
20260506024717 20 0.0 0.0 0.00 0.00 0.00 52 1006.9
20260506024617 20 0.0 0.0 0.00 0.00 0.00 52 1006.9
20260506024517 20 0.0 0.0 0.00 0.00 0.00 52 1006.9
20260506024417 20 0.0 0.0 0.00 0.00 0.00 52 1006.9
20260506024317 20 0.0 0.0 0.00 0.00 0.00 52 1006.9
20260506024217 20 0.0 0.0 0.00 0.00 0.00 51 1007.0
20260506024117 20 0.0 0.0 0.00 0.00 0.00 52 1007.0
20260506024017 20 0.0 0.0 0.00 0.00 0.00 51 1006.9
20260506023917 20 0.0 0.0 0.00 0.00 0.00 51 1006.9
20260506023817 20 0.0 0.0 0.00 0.00 0.00 51 1006.9
20260506023717 20 0.0 0.0 0.00 0.00 0.00 51 1006.9
20260506023617 20 0.0 0.0 0.00 0.00 0.00 51 1006.9
20260506023517 20 0.0 0.0 0.00 0.00 0.00 51 1006.8
20260506023417 20 0.0 0.0 0.00 0.00 0.00 51 1006.8
20260506023317 20 0.0 0.0 0.00 0.00 0.00 51 1006.8
20260506023217 20 0.0 0.0 0.00 0.00 0.00 51 1006.8
20260506023117 20 0.0 0.0 0.00 0.00 0.00 52 1006.8
20260506023017 20 0.0 0.0 0.00 0.00 0.00 52 1006.8
20260506022917 20 0.0 0.0 0.00 0.00 0.00 52 1006.8
20260506022817 20 0.0 0.0 0.00 0.00 0.00 52 1006.8
20260506022717 20 0.0 0.0 0.00 0.00 0.00 52 1006.9
20260506022617 20 0.0 0.0 0.00 0.00 0.00 52 1006.8
20260506022517 20 0.0 0.0 0.00 0.00 0.00 51 1006.8
20260506022417 20 0.0 0.0 0.00 0.00 0.00 51 1006.8
20260506022317 20 0.0 0.0 0.00 0.00 0.00 51 1006.8
20260506022218 20 0.0 0.0 0.00 0.00 0.00 51 1006.8
20260506022117 20 0.0 0.0 0.00 0.00 0.00 51 1006.8
20260506022017 20 0.0 0.0 0.00 0.00 0.00 51 1006.8
20260506021917 20 0.0 0.0 0.00 0.00 0.00 51 1006.8
20260506021817 20 0.0 0.0 0.00 0.00 0.00 51 1006.7
20260506021717 20 0.0 0.0 0.00 0.00 0.00 51 1006.7
20260506021617 20 0.0 0.0 0.00 0.00 0.00 51 1006.7
20260506021517 20 0.0 0.0 0.00 0.00 0.00 51 1006.6
20260506021417 20 0.0 0.0 0.00 0.00 0.00 51 1006.6
20260506021318 20 0.0 0.0 0.00 0.00 0.00 51 1006.6
20260506021217 20 0.0 0.0 0.00 0.00 0.00 51 1006.6
20260506021117 20 0.0 0.0 0.00 0.00 0.00 51 1006.6
20260506021017 20 0.0 0.0 0.00 0.00 0.00 52 1006.6
20260506020917 20 0.0 0.0 0.00 0.00 0.00 52 1006.6
20260506020817 20 0.0 0.0 0.00 0.00 0.00 52 1006.7
20260506020717 20 0.0 0.0 0.00 0.00 0.00 52 1006.7
20260506020617 20 0.0 0.0 0.00 0.00 0.00 52 1006.7
20260506020517 20 0.0 0.0 0.00 0.00 0.00 52 1006.6
20260506020417 20 0.0 0.0 0.00 0.00 0.00 52 1006.7
20260506020317 20 0.0 0.0 0.00 0.00 0.00 52 1006.7
20260506020217 20 0.0 0.0 0.00 0.00 0.00 51 1006.7
20260506020117 20 0.0 0.0 0.00 0.00 0.00 52 1006.7
20260506020017 20 0.0 0.0 0.00 0.00 0.00 52 1006.7
20260506015917 20 0.0 0.0 0.00 0.00 0.00 52 1006.7
20260506015817 20 0.0 0.0 0.00 0.00 0.00 51 1006.7
20260506015717 21 0.0 0.0 0.00 0.00 0.00 52 1006.7
20260506015617 20 0.0 0.0 0.00 0.00 0.00 52 1006.8
20260506015517 21 0.0 0.0 0.00 0.00 0.00 52 1006.7
20260506015417 21 0.0 0.0 0.00 0.00 0.00 52 1006.7
20260506015317 21 0.0 0.0 0.00 0.00 0.00 52 1006.7
20260506015217 21 0.0 0.0 0.00 0.00 0.00 52 1006.7
20260506015117 21 0.0 0.0 0.00 0.00 0.00 52 1006.7
20260506015017 21 0.0 0.0 0.00 0.00 0.00 51 1006.7
20260506014917 21 0.0 0.0 0.00 0.00 0.00 52 1006.7
20260506014817 21 0.0 0.0 0.00 0.00 0.00 52 1006.7
20260506014717 21 0.0 0.0 0.00 0.00 0.00 52 1006.6
20260506014617 21 0.0 0.0 0.00 0.00 0.00 52 1006.7
20260506014517 21 0.0 0.0 0.00 0.00 0.00 52 1006.7
20260506014417 21 0.0 0.0 0.00 0.00 0.00 52 1006.7
20260506014317 21 0.0 0.0 0.00 0.00 0.00 52 1006.8
20260506014217 21 0.0 0.0 0.00 0.00 0.00 52 1006.8
20260506014117 21 0.0 0.0 0.00 0.00 0.00 52 1006.8
20260506014017 21 0.0 0.0 0.00 0.00 0.00 51 1006.8
20260506013917 21 0.0 0.0 0.00 0.00 0.00 51 1006.8
20260506013817 21 0.0 0.0 0.00 0.00 0.00 51 1006.8
20260506013717 21 0.0 0.0 0.00 0.00 0.00 51 1006.7
20260506013617 21 0.0 0.0 0.00 0.00 0.00 51 1006.8
20260506013517 21 0.0 0.0 0.00 0.00 0.00 51 1006.8
20260506013417 21 0.0 0.0 0.00 0.00 0.00 52 1006.7
20260506013317 21 0.0 0.0 0.00 0.00 0.00 52 1006.7
20260506013217 21 0.0 0.0 0.00 0.00 0.00 52 1006.8
20260506013117 21 0.0 0.0 0.00 0.00 0.00 52 1006.7
20260506013017 21 0.0 0.0 0.00 0.00 0.00 52 1006.8
20260506012917 21 0.0 0.0 0.00 0.00 0.00 52 1006.7
20260506012817 21 0.0 0.0 0.00 0.00 0.00 52 1006.7
20260506012717 21 0.0 0.0 0.00 0.00 0.00 52 1006.7
20260506012617 21 0.0 0.0 0.00 0.00 0.00 52 1006.7
20260506012517 21 0.0 0.0 0.00 0.00 0.00 52 1006.7
20260506012417 21 0.0 0.0 0.00 0.00 0.00 52 1006.7
20260506012317 21 0.0 0.0 0.00 0.00 0.00 52 1006.6
20260506012217 21 0.0 0.0 0.00 0.00 0.00 52 1006.7
20260506012117 21 0.0 0.0 0.00 0.00 0.00 52 1006.7
20260506012017 21 0.0 0.0 0.00 0.00 0.00 52 1006.8
20260506011917 21 0.0 0.0 0.00 0.00 0.00 52 1006.7
20260506011817 21 0.0 0.0 0.00 0.00 0.00 52 1006.7
20260506011717 21 0.0 0.0 0.00 0.00 0.00 52 1006.7
20260506011617 21 0.0 0.0 0.00 0.00 0.00 52 1006.7
20260506011517 21 0.0 0.0 0.00 0.00 0.00 52 1006.7
20260506011417 21 0.0 0.0 0.00 0.00 0.00 52 1006.7
20260506011317 21 0.0 0.0 0.00 0.00 0.00 52 1006.7
20260506011217 21 0.0 0.0 0.00 0.00 0.00 52 1006.6
20260506011118 21 0.0 0.0 0.00 0.00 0.00 52 1006.8
20260506011017 21 0.0 0.0 0.00 0.00 0.00 52 1006.7
20260506010917 21 0.0 0.0 0.00 0.00 0.00 52 1006.6
20260506010817 21 0.0 0.0 0.00 0.00 0.00 52 1006.6
20260506010717 21 0.0 0.0 0.00 0.00 0.00 52 1006.7
20260506010617 21 0.0 0.0 0.00 0.00 0.00 52 1006.7
20260506010517 21 0.0 0.0 0.00 0.00 0.00 52 1006.7
20260506010417 21 0.0 0.0 0.00 0.00 0.00 52 1006.7
20260506010317 21 0.0 0.0 0.00 0.00 0.00 52 1006.7
20260506010217 21 0.0 0.0 0.00 0.00 0.00 52 1006.7
20260506010117 21 0.0 0.0 0.00 0.00 0.00 52 1006.7
20260506010017 21 0.0 0.0 0.00 0.00 0.00 52 1006.6
20260506005917 21 0.0 0.0 0.00 0.00 0.00 52 1006.7
20260506005817 21 0.0 0.0 0.00 0.00 0.00 52 1006.6
20260506005717 21 0.0 0.0 0.00 0.00 0.00 52 1006.7
20260506005617 21 0.0 0.0 0.00 0.00 0.00 52 1006.6
20260506005517 21 0.0 0.0 0.00 0.00 0.00 52 1006.7
20260506005417 21 0.0 0.0 0.00 0.00 0.00 52 1006.6
20260506005317 21 0.0 0.0 0.00 0.00 0.00 52 1006.6
20260506005217 21 0.0 0.0 0.00 0.00 0.00 52 1006.6
20260506005117 21 0.0 0.0 0.00 0.00 0.00 52 1006.6
20260506005017 21 0.0 0.0 0.00 0.00 0.00 52 1006.7
20260506004917 21 0.0 0.0 0.00 0.00 0.00 51 1006.6
20260506004817 21 0.0 0.0 0.00 0.00 0.00 51 1006.5
20260506004717 21 0.0 0.0 0.00 0.00 0.00 52 1006.5
20260506004617 21 0.0 0.0 0.00 0.00 0.00 52 1006.6
20260506004517 21 0.0 0.0 0.00 0.00 0.00 52 1006.5
20260506004417 21 0.0 0.0 0.00 0.00 0.00 51 1006.6
20260506004317 21 0.0 0.0 0.00 0.00 0.00 52 1006.5
20260506004217 21 0.0 0.0 0.00 0.00 0.00 51 1006.5
20260506004117 21 0.0 0.0 0.00 0.00 0.00 51 1006.5
20260506004017 21 0.0 0.0 0.00 0.00 0.00 52 1006.5
20260506003917 21 0.0 0.0 0.00 0.00 0.00 51 1006.5
20260506003817 21 0.0 0.0 0.00 0.00 0.00 52 1006.5
20260506003717 21 0.0 0.0 0.00 0.00 0.00 52 1006.5
20260506003617 21 0.0 0.0 0.00 0.00 0.00 52 1006.5
20260506003517 21 0.0 0.0 0.00 0.00 0.00 52 1006.5
20260506003417 21 0.0 0.0 0.00 0.00 0.00 52 1006.5
20260506003317 21 0.0 0.0 0.00 0.00 0.00 52 1006.6
20260506003217 21 0.0 0.0 0.00 0.00 0.00 52 1006.5
20260506003117 21 0.0 0.0 0.00 0.00 0.00 52 1006.6
20260506003017 21 0.0 0.0 0.00 0.00 0.00 52 1006.5
20260506002917 21 0.0 0.0 0.00 0.00 0.00 52 1006.6
20260506002817 21 0.0 0.0 0.00 0.00 0.00 52 1006.6
20260506002717 21 0.0 0.0 0.00 0.00 0.00 51 1006.6
20260506002618 21 0.0 0.0 0.00 0.00 0.00 51 1006.7
20260506002517 21 0.0 0.0 0.00 0.00 0.00 51 1006.6
20260506002417 21 0.0 0.0 0.00 0.00 0.00 51 1006.6
20260506002317 21 0.0 0.0 0.00 0.00 0.00 51 1006.7
20260506002217 21 0.0 0.0 0.00 0.00 0.00 51 1006.6
20260506002117 21 0.0 0.0 0.00 0.00 0.00 51 1006.7
20260506002017 21 0.0 0.0 0.00 0.00 0.00 51 1006.6
20260506001917 21 0.0 0.0 0.00 0.00 0.00 51 1006.6
20260506001817 21 0.0 0.0 0.00 0.00 0.00 51 1006.7
20260506001717 21 0.0 0.0 0.00 0.00 0.00 51 1006.6
20260506001617 21 0.0 0.0 0.00 0.00 0.00 51 1006.6
20260506001517 21 0.0 0.0 0.00 0.00 0.00 51 1006.7
20260506001417 21 0.0 0.0 0.00 0.00 0.00 51 1006.6
20260506001317 21 0.0 0.0 0.00 0.00 0.00 51 1006.6
20260506001217 21 0.0 0.0 0.00 0.00 0.00 51 1006.6
20260506001117 21 0.0 0.0 0.00 0.00 0.00 51 1006.6
20260506001018 21 0.0 0.0 0.00 0.00 0.00 51 1006.6
20260506000917 21 0.0 0.0 0.00 0.00 0.00 51 1006.6
20260506000817 21 0.0 0.0 0.00 0.00 0.00 51 1006.6
20260506000718 21 0.0 0.0 0.00 0.00 0.00 51 1006.6
20260506000618 21 0.0 0.0 0.00 0.00 0.00 51 1006.6
20260506000517 21 0.0 0.0 0.00 0.00 0.00 51 1006.6
20260506000417 21 0.0 0.0 0.00 0.00 0.00 51 1006.5
20260506000317 21 0.0 0.0 0.00 0.00 0.00 51 1006.6
20260506000219 21 0.0 0.0 0.00 0.00 0.00 51 1006.5
20260506000117 21 0.0 0.0 0.00 0.00 0.00 51 1006.5
20260506000017 21 0.0 0.0 0.00 0.00 0.00 51 1006.4
20260505235917 21 0.0 0.0 0.00 0.00 0.00 51 1006.5
20260505235817 21 0.0 0.0 0.00 0.00 0.00 51 1006.5
20260505235717 21 0.0 0.0 0.00 0.00 0.00 51 1006.5
20260505235617 21 0.0 0.0 0.00 0.00 0.00 51 1006.5
20260505235517 21 0.0 0.0 0.00 0.00 0.00 51 1006.4
20260505235418 21 0.0 0.0 0.00 0.00 0.00 51 1006.5
20260505235317 21 0.0 0.0 0.00 0.00 0.00 51 1006.5
20260505235217 21 0.0 0.0 0.00 0.00 0.00 51 1006.5
20260505235117 21 0.0 0.0 0.00 0.00 0.00 51 1006.4
20260505235017 21 0.0 0.0 0.00 0.00 0.00 51 1006.5
20260505234917 21 0.0 0.0 0.00 0.00 0.00 51 1006.5
20260505234817 21 0.0 0.0 0.00 0.00 0.00 51 1006.5
20260505234717 21 0.0 0.0 0.00 0.00 0.00 51 1006.5
20260505234617 21 0.0 0.0 0.00 0.00 0.00 51 1006.5
20260505234517 21 0.0 0.0 0.00 0.00 0.00 51 1006.4
20260505234417 21 0.0 0.0 0.00 0.00 0.00 51 1006.5
20260505234317 21 0.0 0.0 0.00 0.00 0.00 51 1006.5
20260505234217 21 0.0 0.0 0.00 0.00 0.00 51 1006.5
20260505234117 21 0.0 0.0 0.00 0.00 0.00 51 1006.5
20260505234017 21 0.0 0.0 0.00 0.00 0.00 51 1006.5
20260505233917 21 0.0 0.0 0.00 0.00 0.00 51 1006.5
20260505233817 21 0.0 0.0 0.00 0.00 0.00 51 1006.5
20260505233718 21 0.0 0.0 0.00 0.00 0.00 51 1006.4
20260505233617 21 0.0 0.0 0.00 0.00 0.00 51 1006.5
20260505233517 21 0.0 0.0 0.00 0.00 0.00 51 1006.5
20260505233417 21 0.0 0.0 0.00 0.00 0.00 51 1006.5
20260505233317 21 0.0 0.0 0.00 0.00 0.00 51 1006.5
20260505233217 21 0.0 0.0 0.00 0.00 0.00 51 1006.5
20260505233117 21 0.0 0.0 0.00 0.00 0.00 51 1006.5
20260505233017 21 0.0 0.0 0.00 0.00 0.00 51 1006.5
20260505232917 21 0.0 0.0 0.00 0.00 0.00 50 1006.5
20260505232817 21 0.0 0.0 0.00 0.00 0.00 50 1006.6
20260505232717 21 0.0 0.0 0.00 0.00 0.00 51 1006.5
20260505232617 21 0.0 0.0 0.00 0.00 0.00 50 1006.4
20260505232517 21 0.0 0.0 0.00 0.00 0.00 51 1006.5
20260505232418 21 0.0 0.0 0.00 0.00 0.00 50 1006.5
20260505232317 21 0.0 0.0 0.00 0.00 0.00 51 1006.4
20260505232218 21 0.0 0.0 0.00 0.00 0.00 50 1006.4
20260505232117 21 0.0 0.0 0.00 0.00 0.00 51 1006.4
20260505232017 21 0.0 0.0 0.00 0.00 0.00 50 1006.4
20260505231917 21 0.0 0.0 0.00 0.00 0.00 51 1006.4
20260505231817 21 0.0 0.0 0.00 0.00 0.00 51 1006.4
20260505231718 21 0.0 0.0 0.00 0.00 0.00 51 1006.4
20260505231617 21 0.0 0.0 0.00 0.00 0.00 51 1006.4
20260505231517 21 0.0 0.0 0.00 0.00 0.00 51 1006.4
20260505231417 21 0.0 0.0 0.00 0.00 0.00 51 1006.4
20260505231318 21 0.0 0.0 0.00 0.00 0.00 51 1006.4
20260505231217 21 0.0 0.0 0.00 0.00 0.00 51 1006.4
20260505231117 21 0.0 0.0 0.00 0.00 0.00 50 1006.4
20260505231017 21 0.0 0.0 0.00 0.00 0.00 51 1006.4
20260505230917 21 0.0 0.0 0.00 0.00 0.00 51 1006.5
20260505230817 21 0.0 0.0 0.00 0.00 0.00 51 1006.4
20260505230717 21 0.0 0.0 0.00 0.00 0.00 50 1006.5
20260505230617 21 0.0 0.0 0.00 0.00 0.00 50 1006.4
20260505230517 21 0.0 0.0 0.00 0.00 0.00 50 1006.6
20260505230417 21 0.0 0.0 0.00 0.00 0.00 50 1006.5
20260505230317 21 0.0 0.0 0.00 0.00 0.00 50 1006.6
20260505230217 21 0.0 0.0 0.00 0.00 0.00 50 1006.5
20260505230117 21 0.0 0.0 0.00 0.00 0.00 50 1006.5
20260505230017 21 0.0 0.0 0.00 0.00 0.00 50 1006.5
20260505225917 21 0.0 0.0 0.00 0.00 0.00 50 1006.5
20260505225817 21 0.0 0.0 0.00 0.00 0.00 51 1006.5
20260505225717 21 0.0 0.0 0.00 0.00 0.00 51 1006.5
20260505225617 21 0.0 0.0 0.00 0.00 0.00 50 1006.4
20260505225517 21 0.0 0.0 0.00 0.00 0.00 50 1006.4
20260505225417 21 0.0 0.0 0.00 0.00 0.00 51 1006.4
20260505225317 21 0.0 0.0 0.00 0.00 0.00 51 1006.5
20260505225217 21 0.0 0.0 0.00 0.00 0.00 51 1006.5
20260505225117 21 0.0 0.0 0.00 0.00 0.00 51 1006.5
20260505225017 21 0.0 0.0 0.00 0.00 0.00 50 1006.4
20260505224917 21 0.0 0.0 0.00 0.00 0.00 50 1006.5
20260505224817 21 0.0 0.0 0.00 0.00 0.00 50 1006.5
20260505224717 21 0.0 0.0 0.00 0.00 0.00 50 1006.5
20260505224617 21 0.0 0.0 0.00 0.00 0.00 50 1006.5
20260505224517 21 0.0 0.0 0.00 0.00 0.00 50 1006.5
20260505224417 21 0.0 0.0 0.00 0.00 0.00 50 1006.5
20260505224317 21 0.0 0.0 0.00 0.00 0.00 50 1006.5
20260505224217 21 0.0 0.0 0.00 0.00 0.00 50 1006.5
20260505224117 21 0.0 0.0 0.00 0.00 0.00 50 1006.5
20260505224017 21 0.0 0.0 0.00 0.00 0.00 50 1006.5
20260505223917 21 0.0 0.0 0.00 0.00 0.00 50 1006.6
20260505223817 21 0.0 0.0 0.00 0.00 0.00 50 1006.5
20260505223717 21 0.0 0.0 0.00 0.00 0.00 49 1006.6
20260505223617 21 0.0 0.0 0.00 0.00 0.00 50 1006.6
20260505223517 21 0.0 0.0 0.00 0.00 0.00 50 1006.5
20260505223417 21 0.0 0.0 0.00 0.00 0.00 50 1006.5
20260505223317 21 0.0 0.0 0.00 0.00 0.00 50 1006.6
20260505223217 21 0.0 0.0 0.00 0.00 0.00 49 1006.5
20260505223117 21 0.0 0.0 0.00 0.00 0.00 49 1006.6
20260505223017 21 0.0 0.0 0.00 0.00 0.00 50 1006.6
20260505222917 21 0.0 0.0 0.00 0.00 0.00 50 1006.6
20260505222817 21 0.0 0.0 0.00 0.00 0.00 50 1006.5
20260505222717 21 0.0 0.0 0.00 0.00 0.00 49 1006.6
20260505222617 21 0.0 0.0 0.00 0.00 0.00 49 1006.5
20260505222517 21 0.0 0.0 0.00 0.00 0.00 50 1006.5
20260505222417 21 0.0 0.0 0.00 0.00 0.00 50 1006.6
20260505222317 21 0.0 0.0 0.00 0.00 0.00 49 1006.6
20260505222217 21 0.0 0.0 0.00 0.00 0.00 49 1006.5
20260505222117 21 0.0 0.0 0.00 0.00 0.00 49 1006.6
20260505222017 21 0.0 0.0 0.00 0.00 0.00 49 1006.6
20260505221917 21 0.0 0.0 0.00 0.00 0.00 49 1006.5
20260505221817 21 0.0 0.0 0.00 0.00 0.00 49 1006.6
20260505221717 21 0.0 0.0 0.00 0.00 0.00 50 1006.6
20260505221617 21 0.0 0.0 0.00 0.00 0.00 50 1006.6
20260505221517 21 0.0 0.0 0.00 0.00 0.00 50 1006.6
20260505221417 21 0.0 0.0 0.00 0.00 0.00 49 1006.6
20260505221317 21 0.0 0.0 0.00 0.00 0.00 50 1006.6
20260505221217 21 0.0 0.0 0.00 0.00 0.00 49 1006.6
20260505221117 21 0.0 0.0 0.00 0.00 0.00 49 1006.7
20260505221017 21 0.0 0.0 0.00 0.00 0.00 49 1006.6
20260505220917 21 0.0 0.0 0.00 0.00 0.00 49 1006.6
20260505220817 21 0.0 0.0 0.00 0.00 0.00 49 1006.6
20260505220717 21 0.0 0.0 0.00 0.00 0.00 49 1006.6
20260505220617 21 0.0 0.0 0.00 0.00 0.00 49 1006.6
20260505220517 21 0.0 0.0 0.00 0.00 0.00 49 1006.6
20260505220417 21 0.0 0.0 0.00 0.00 0.00 49 1006.6
20260505220317 21 0.0 0.0 0.00 0.00 0.00 49 1006.5
20260505220217 21 0.0 0.0 0.00 0.00 0.00 49 1006.6
20260505220117 21 0.0 0.0 0.00 0.00 0.00 49 1006.6
20260505220017 21 0.0 0.0 0.00 0.00 0.00 49 1006.6
20260505215917 21 0.0 0.0 0.00 0.00 0.00 50 1006.6
20260505215817 21 0.0 0.0 0.00 0.00 0.00 50 1006.6
20260505215717 21 0.0 0.0 0.00 0.00 0.00 49 1006.6
20260505215617 21 0.0 0.0 0.00 0.00 0.00 50 1006.6
20260505215517 21 0.0 0.0 0.00 0.00 0.00 49 1006.6
20260505215417 21 0.0 0.0 0.00 0.00 0.00 50 1006.6
20260505215317 21 0.0 0.0 0.00 0.00 0.00 49 1006.6
20260505215217 21 0.0 0.0 0.00 0.00 0.00 50 1006.6
20260505215117 21 0.0 0.0 0.00 0.00 0.00 49 1006.6
20260505215017 21 0.0 0.0 0.00 0.00 0.00 50 1006.6
20260505214918 21 0.0 0.0 0.00 0.00 0.00 50 1006.6
20260505214817 21 0.0 0.0 0.00 0.00 0.00 50 1006.6
20260505214717 21 0.0 0.0 0.00 0.00 0.00 50 1006.5
20260505214617 21 0.0 0.0 0.00 0.00 0.00 50 1006.6
20260505214517 21 0.0 0.0 0.00 0.00 0.00 50 1006.5
20260505214417 21 0.0 0.0 0.00 0.00 0.00 50 1006.6
20260505214317 21 0.0 0.0 0.00 0.00 0.00 50 1006.6
20260505214217 21 0.0 0.0 0.00 0.00 0.00 50 1006.5
20260505214117 21 0.0 0.0 0.00 0.00 0.00 50 1006.5
20260505214017 21 0.0 0.0 0.00 0.00 0.00 50 1006.5
20260505213917 21 0.0 0.0 0.00 0.00 0.00 50 1006.6
20260505213817 21 0.0 0.0 0.00 0.00 0.00 50 1006.5
20260505213717 21 0.0 0.0 0.00 0.00 0.00 50 1006.5
20260505213617 21 0.0 0.0 0.00 0.00 0.00 50 1006.5
20260505213517 21 0.0 0.0 0.00 0.00 0.00 50 1006.5
20260505213417 21 0.0 0.0 0.00 0.00 0.00 49 1006.5
20260505213317 21 0.0 0.0 0.00 0.00 0.00 49 1006.5
20260505213217 21 0.0 0.0 0.00 0.00 0.00 49 1006.6
20260505213117 21 0.0 0.0 0.00 0.00 0.00 49 1006.6
20260505213017 21 0.0 0.0 0.00 0.00 0.00 49 1006.5
20260505212917 21 0.0 0.0 0.00 0.00 0.00 49 1006.5
20260505212817 21 0.0 0.0 0.00 0.00 0.00 49 1006.6
20260505212717 21 0.0 0.0 0.00 0.00 0.00 49 1006.6
20260505212617 21 0.0 0.0 0.00 0.00 0.00 50 1006.6
20260505212517 21 0.0 0.0 0.00 0.00 0.00 49 1006.6
20260505212417 21 0.0 0.0 0.00 0.00 0.00 49 1006.6
20260505212317 21 0.0 0.0 0.00 0.00 0.00 49 1006.5
20260505212217 21 0.0 0.0 0.00 0.00 0.00 49 1006.6
20260505212117 21 0.0 0.0 0.00 0.00 0.00 49 1006.5
20260505212017 21 0.0 0.0 0.00 0.00 0.00 49 1006.6
20260505211917 21 0.0 0.0 0.00 0.00 0.00 49 1006.6
20260505211817 21 0.0 0.0 0.00 0.00 0.00 49 1006.6
20260505211717 21 0.0 0.0 0.00 0.00 0.00 49 1006.6
20260505211617 21 0.0 0.0 0.00 0.00 0.00 49 1006.6
20260505211517 21 0.0 0.0 0.00 0.00 0.00 48 1006.5
20260505211417 21 0.0 0.0 0.00 0.00 0.00 48 1006.6
20260505211317 21 0.0 0.0 0.00 0.00 0.00 49 1006.6
20260505211217 21 0.0 0.0 0.00 0.00 0.00 48 1006.6
20260505211117 21 0.0 0.0 0.00 0.00 0.00 49 1006.7
20260505211017 21 0.0 0.0 0.00 0.00 0.00 49 1006.6
20260505210917 21 0.0 0.0 0.00 0.00 0.00 49 1006.6
20260505210817 21 0.0 0.0 0.00 0.00 0.00 49 1006.6
20260505210717 21 0.0 0.0 0.00 0.00 0.00 48 1006.7
20260505210617 21 0.0 0.0 0.00 0.00 0.00 49 1006.6
20260505210517 21 0.0 0.0 0.00 0.00 0.00 48 1006.6
20260505210417 21 0.0 0.0 0.00 0.00 0.00 48 1006.6
20260505210317 21 0.0 0.0 0.00 0.00 0.00 48 1006.6
20260505210217 21 0.0 0.0 0.00 0.00 0.00 48 1006.6
20260505210117 21 0.0 0.0 0.00 0.00 0.00 48 1006.6
20260505210017 21 0.0 0.0 0.00 0.00 0.00 48 1006.6
20260505205917 21 0.0 0.0 0.00 0.00 0.00 48 1006.6
20260505205817 21 0.0 0.0 0.00 0.00 0.00 48 1006.6
20260505205717 21 0.0 0.0 0.00 0.00 0.00 48 1006.6
20260505205617 21 0.0 0.0 0.00 0.00 0.00 48 1006.5
20260505205517 21 0.0 0.0 0.00 0.00 0.00 48 1006.6
20260505205417 21 0.0 0.0 0.00 0.00 0.00 48 1006.6
20260505205317 21 0.0 0.0 0.00 0.00 0.00 49 1006.6
20260505205217 21 0.0 0.0 0.00 0.00 0.00 48 1006.6
20260505205117 21 0.0 0.0 0.00 0.00 0.00 49 1006.6
20260505205017 21 0.0 0.0 0.00 0.00 0.00 49 1006.6
20260505204917 21 0.0 0.0 0.00 0.00 0.00 48 1006.6
20260505204817 21 0.0 0.0 0.00 0.00 0.00 48 1006.6
20260505204717 21 0.0 0.0 0.00 0.00 0.00 48 1006.6
20260505204617 21 0.0 0.0 0.00 0.00 0.00 48 1006.6
20260505204517 21 0.0 0.0 0.00 0.00 0.00 48 1006.6
20260505204417 21 0.0 0.0 0.00 0.00 0.00 48 1006.6
20260505204317 21 0.0 0.0 0.00 0.00 0.00 48 1006.6
20260505204217 21 0.0 0.0 0.00 0.00 0.00 48 1006.6
20260505204117 21 0.0 0.0 0.00 0.00 0.00 48 1006.7
20260505204017 21 0.0 0.0 0.00 0.00 0.00 48 1006.6
20260505203917 21 0.0 0.0 0.00 0.00 0.00 48 1006.7
20260505203817 21 0.0 0.0 0.00 0.00 0.00 48 1006.6
20260505203717 21 0.0 0.0 0.00 0.00 0.00 48 1006.7
20260505203617 21 0.0 0.0 0.00 0.00 0.00 48 1006.7
20260505203517 21 0.0 0.0 0.00 0.00 0.00 48 1006.6
20260505203417 21 0.0 0.0 0.00 0.00 0.00 46 1006.7
20260505203317 21 0.0 0.0 0.00 0.00 0.00 48 1006.6
20260505203217 21 0.0 0.0 0.00 0.00 0.00 48 1006.7
20260505203117 21 0.0 0.0 0.00 0.00 0.00 48 1006.7
20260505203017 21 0.0 0.0 0.00 0.00 0.00 48 1006.7
20260505202917 21 0.0 0.0 0.00 0.00 0.00 47 1006.6
20260505202817 21 0.0 0.0 0.00 0.00 0.00 47 1006.6
20260505202717 21 0.0 0.0 0.00 0.00 0.00 48 1006.6
20260505202617 21 0.0 0.0 0.00 0.00 0.00 48 1006.6
20260505202517 21 0.0 0.0 0.00 0.00 0.00 48 1006.6
20260505202417 21 0.0 0.0 0.00 0.00 0.00 48 1006.6
20260505202317 21 0.0 0.0 0.00 0.00 0.00 48 1006.6
20260505202217 21 0.0 0.0 0.00 0.00 0.00 48 1006.6
20260505202117 21 0.0 0.0 0.00 0.00 0.00 47 1006.7
20260505202017 21 0.0 0.0 0.00 0.00 0.00 47 1006.7
20260505201917 21 0.0 0.0 0.00 0.00 0.00 47 1006.6
20260505201817 21 0.0 0.0 0.00 0.00 0.00 47 1006.6
20260505201717 21 0.0 0.0 0.00 0.00 0.00 47 1006.6
20260505201617 21 0.0 0.0 0.00 0.00 0.00 47 1006.6
20260505201517 21 0.0 0.0 0.00 0.00 0.00 47 1006.6
20260505201417 21 0.0 0.0 0.00 0.00 0.00 47 1006.6
20260505201317 21 0.0 0.0 0.00 0.00 0.00 48 1006.6
20260505201217 21 0.0 0.0 0.00 0.00 0.00 47 1006.5
20260505201117 21 0.0 0.0 0.00 0.00 0.00 47 1006.6
20260505201017 21 0.0 0.0 0.00 0.00 0.00 47 1006.4
20260505200917 21 0.0 0.0 0.00 0.00 0.00 47 1006.5
20260505200817 21 0.0 0.0 0.00 0.00 0.00 47 1006.5
20260505200717 21 0.0 0.0 0.00 0.00 0.00 47 1006.5
20260505200617 21 0.0 0.0 0.00 0.00 0.00 47 1006.4
20260505200517 21 0.0 0.0 0.00 0.00 0.00 47 1006.5
20260505200417 21 0.0 0.0 0.00 0.00 0.00 47 1006.5
20260505200317 21 0.0 0.0 0.00 0.00 0.00 47 1006.5
20260505200217 21 0.0 0.0 0.00 0.00 0.00 47 1006.4
20260505200117 21 0.0 0.0 0.00 0.00 0.00 47 1006.5
20260505200017 21 0.0 0.0 0.00 0.00 0.00 47 1006.4
20260505195917 21 0.0 0.0 0.00 0.00 0.00 47 1006.4
20260505195817 21 0.0 0.0 0.00 0.00 0.00 48 1006.4
20260505195717 21 0.0 0.0 0.00 0.00 0.00 47 1006.3
20260505195617 21 0.0 0.0 0.00 0.00 0.00 47 1006.3
20260505195517 21 0.0 0.0 0.00 0.00 0.00 47 1006.3
20260505195417 21 0.0 0.0 0.00 0.00 0.00 47 1006.3
20260505195317 21 0.0 0.0 0.00 0.00 0.00 47 1006.4
20260505195217 21 0.0 0.0 0.00 0.00 0.00 47 1006.3
20260505195117 21 0.0 0.0 0.00 0.00 0.00 47 1006.3
20260505195017 21 0.0 0.0 0.00 0.00 0.00 47 1006.3
20260505194917 21 0.0 0.0 0.00 0.00 0.00 47 1006.3
20260505194817 21 0.0 0.0 0.00 0.00 0.00 47 1006.3
20260505194717 21 0.0 0.0 0.00 0.00 0.00 47 1006.3
20260505194617 21 0.0 0.0 0.00 0.00 0.00 47 1006.3
20260505194517 21 0.0 0.0 0.00 0.00 0.00 47 1006.4
20260505194417 21 0.0 0.0 0.00 0.00 0.00 47 1006.3
20260505194317 21 0.0 0.0 0.00 0.00 0.00 47 1006.4
20260505194217 21 0.0 0.0 0.00 0.00 0.00 47 1006.3
20260505194117 21 0.0 0.0 0.00 0.00 0.00 47 1006.4
20260505194017 21 0.0 0.0 0.00 0.00 0.00 47 1006.4
20260505193917 21 0.0 0.0 0.00 0.00 0.00 47 1006.4
20260505193817 21 0.0 0.0 0.00 0.00 0.00 47 1006.4
20260505193717 21 0.0 0.0 0.00 0.00 0.00 47 1006.3
20260505193617 21 0.0 0.0 0.00 0.00 0.00 47 1006.4
20260505193517 21 0.0 0.0 0.00 0.00 0.00 47 1006.4
20260505193417 21 0.0 0.0 0.00 0.00 0.00 47 1006.4
20260505193317 21 0.0 0.0 0.00 0.00 0.00 47 1006.4
20260505193217 21 0.0 0.0 0.00 0.00 0.00 47 1006.3
20260505193117 21 0.0 0.0 0.00 0.00 0.00 47 1006.4
20260505193017 21 0.0 0.0 0.00 0.00 0.00 47 1006.4
20260505192917 21 0.0 0.0 0.00 0.00 0.00 47 1006.3
20260505192817 21 0.0 0.0 0.00 0.00 0.00 47 1006.4
20260505192717 21 0.0 0.0 0.00 0.00 0.00 47 1006.3
20260505192617 21 0.0 0.0 0.00 0.00 0.00 47 1006.4
20260505192517 21 0.0 0.0 0.00 0.00 0.00 47 1006.3
20260505192417 21 0.0 0.0 0.00 0.00 0.00 47 1006.3
20260505192317 21 0.0 0.0 0.00 0.00 0.00 47 1006.3
20260505192217 21 0.0 0.0 0.00 0.00 0.00 47 1006.3
20260505192117 21 0.0 0.0 0.00 0.00 0.00 46 1006.3
20260505192017 21 0.0 0.0 0.00 0.00 0.00 47 1006.4
20260505191946 21 0.0 0.0 0.00 0.00 0.00 47 1006.3
20260505191917 21 0.0 0.0 0.00 0.00 0.00 47 1006.3
20260505191817 21 0.0 0.0 0.00 0.00 0.00 47 1006.3
20260505191717 21 0.0 0.0 0.00 0.00 0.00 46 1006.3
20260505191617 21 0.0 0.0 0.00 0.00 0.00 47 1006.3
20260505191517 21 0.0 0.0 0.00 0.00 0.00 46 1006.3
20260505191417 21 0.0 0.0 0.00 0.00 0.00 47 1006.3
20260505191317 21 0.0 0.0 0.00 0.00 0.00 47 1006.3
20260505191217 21 0.0 0.0 0.00 0.00 0.00 47 1006.3
20260505191117 21 0.0 0.0 0.00 0.00 0.00 47 1006.3
20260505191017 21 0.0 0.0 0.00 0.00 0.00 46 1006.3